DW6198 Weather Reports


time (UTC)temp
F
wind
direction
speed
knots
gust
knots
rain 1hr
in
rain 24hr
in
rain mn
in
humidity
%
barometer
mb
20190223061710 11 245 0.0 0.9 0.00 0.04 0.00 83 1046.8
20190223060121 11 244 0.0 0.9 0.00 0.04 0.00 83 1046.1
20190223054643 11 245 0.0 0.9 0.00 0.09 0.00 81 1046.1
20190223053139 11 244 0.0 0.9 0.00 0.09 0.00 81 1045.7
20190223051543 11 245 0.0 0.0 0.00 0.09 0.00 81 1045.8
20190223050105 12 245 0.0 0.0 0.00 0.09 0.00 80 1045.8
20190223044602 12 245 0.0 0.9 0.00 0.17 0.00 80 1045.9
20190223043121 12 245 0.0 0.9 0.00 0.17 0.00 78 1046.0
20190223041540 12 245 0.0 0.0 0.00 0.17 0.00 79 1045.8
20190223040048 12 245 0.0 0.9 0.00 0.17 0.00 80 1045.9
20190223034547 13 245 0.0 0.9 0.00 0.23 0.00 79 1045.6
20190223033106 13 245 0.0 0.9 0.00 0.23 0.00 80 1045.6
20190223031524 13 217 0.9 1.7 0.00 0.23 0.00 81 1045.4
20190223030044 12 235 0.0 0.9 0.00 0.23 0.00 80 1045.5
20190223024521 13 235 0.0 0.9 0.00 0.33 0.00 81 1045.6
20190223023043 12 235 0.0 0.9 0.00 0.33 0.00 81 1045.9
20190223021519 13 235 0.0 0.0 0.00 0.33 0.00 81 1045.9
20190223020029 13 235 0.0 0.9 0.00 0.33 0.00 81 1045.5
20190223014532 13 235 0.0 0.0 0.00 0.43 0.00 83 1045.7
20190223013010 13 235 0.0 0.0 0.00 0.43 0.00 83 1045.6
20190223011516 13 235 0.0 0.9 0.00 0.43 0.00 83 1045.6
20190223010008 13 235 0.0 0.0 0.00 0.43 0.00 83 1045.4
20190223004503 13 235 0.0 0.9 0.00 0.57 0.00 83 1045.4
20190223003227 13 235 0.0 0.9 0.00 0.57 0.00 82 1045.2
20190223001745 14 235 0.0 0.9 0.00 0.57 0.00 82 1044.9
20190223000148 14 235 0.0 0.9 0.00 0.57 0.00 81 1044.8
20190222234733 15 235 0.0 0.9 0.00 0.71 0.00 81 1044.8
20190222233158 14 229 0.0 0.9 0.00 0.71 0.00 82 1044.7
20190222231623 15 263 0.0 0.9 0.00 0.71 0.00 80 1044.4
20190222230129 15 226 0.0 0.9 0.00 0.71 0.00 80 1044.4
20190222224619 15 238 0.0 0.9 0.00 0.73 0.71 81 1044.2
20190222223209 15 234 0.0 2.6 0.00 0.73 0.71 81 1043.9
20190222221639 15 227 0.0 1.7 0.00 0.73 0.71 80 1043.8
20190222220129 15 43 0.0 0.9 0.00 0.73 0.71 81 1043.7
20190222214649 16 43 0.0 0.9 0.00 0.82 0.71 80 1043.5
20190222213103 16 162 0.0 2.6 0.00 0.82 0.71 80 1043.4
20190222211624 16 358 0.0 3.5 0.00 0.82 0.71 81 1043.2
20190222210047 16 27 0.0 2.6 0.00 0.82 0.71 82 1043.0
20190222204559 17 64 0.0 0.9 0.00 0.88 0.71 82 1042.8
20190222203117 17 112 0.0 2.6 0.00 0.88 0.71 82 1042.6
20190222201519 17 316 0.0 2.6 0.00 0.88 0.71 82 1042.2
20190222200035 18 61 0.0 7.0 0.00 0.88 0.71 82 1042.0
20190222194526 18 4 0.9 4.3 0.00 0.88 0.71 81 1041.9
20190222193008 18 297 0.0 2.6 0.00 0.88 0.71 81 1041.6
20190222191505 18 212 0.0 3.5 0.00 0.88 0.71 81 1041.2
20190222190002 19 293 1.7 5.2 0.00 0.88 0.71 81 1040.8
20190222184652 19 5 0.9 4.3 0.00 0.88 0.71 82 1040.7
20190222183209 19 315 0.0 2.6 0.00 0.88 0.71 83 1040.4
20190222181819 19 205 0.0 6.1 0.00 0.88 0.71 82 1040.3
20190222180130 20 243 0.0 2.6 0.00 0.88 0.71 83 1040.1
20190222174635 20 33 0.9 5.2 0.00 0.88 0.71 83 1039.8
20190222173147 20 349 0.9 1.7 0.00 0.88 0.71 83 1039.7
20190222171826 21 238 0.0 0.9 0.00 0.88 0.71 83 1039.4
20190222170102 21 77 0.9 2.6 0.00 0.88 0.71 82 1039.0
20190222164600 22 129 0.9 1.7 0.00 1.01 0.71 83 1039.0
20190222163132 22 51 0.0 2.6 0.00 1.01 0.71 84 1038.6
20190222161619 23 343 0.0 2.6 0.00 1.01 0.71 84 1038.2
20190222160050 23 231 0.0 2.6 0.00 1.01 0.71 83 1038.1
20190222154549 24 195 0.0 1.7 0.00 1.12 0.71 82 1037.8
20190222153032 24 235 0.0 1.7 0.00 1.12 0.71 82 1037.7
20190222151543 24 253 0.9 5.2 0.00 1.12 0.71 81 1037.4
20190222150100 25 27 0.0 5.2 0.00 1.12 0.71 82 1037.1
20190222144526 25 82 0.9 4.3 0.00 1.14 0.71 80 1036.6
20190222143015 26 75 0.9 3.5 0.00 1.14 0.71 80 1036.6
20190222141527 27 255 1.7 5.2 0.00 1.14 0.71 81 1036.4
20190222140011 27 233 0.0 6.1 0.00 1.14 0.71 82 1036.0
20190222134513 27 229 1.7 7.0 0.00 1.20 0.71 82 1035.6
20190222133012 27 274 0.9 9.6 0.00 1.20 0.71 81 1035.5
20190222131506 28 124 1.7 7.8 0.00 1.20 0.71 82 1035.3
20190222124708 28 288 1.7 7.0 0.00 1.23 0.71 84 1034.9
20190222123137 28 260 0.9 3.5 0.00 1.23 0.71 85 1034.7
20190222121654 28 84 1.7 8.7 0.00 1.23 0.71 85 1034.3
20190222120133 29 97 0.0 2.6 0.00 1.23 0.71 86 1033.9
20190222114629 28 333 2.6 10.4 0.00 1.23 0.71 86 1033.9
20190222113127 27 147 0.9 7.0 0.00 1.23 0.71 87 1033.7
20190222111544 27 240 0.9 7.8 0.00 1.23 0.71 89 1033.5
20190222110058 27 30 0.9 5.2 0.00 1.23 0.71 91 1033.3
20190222104615 27 20 0.9 8.7 0.00 1.23 0.71 95 1033.2
20190222103030 25 37 0.9 3.5 0.00 1.23 0.71 96 1033.0
20190222101547 25 326 0.9 12.2 0.00 1.23 0.71 96 1033.1
20190222100041 25 61 4.3 12.2 0.00 1.23 0.71 96 1032.5
20190222094532 26 288 0.9 7.0 0.00 1.23 0.71 96 1032.1
20190222093019 26 266 2.6 8.7 0.00 1.23 0.71 96 1031.5
20190222091518 26 217 0.9 9.6 0.00 1.23 0.71 96 1031.3
20190222090009 27 58 3.5 10.4 0.00 1.23 0.71 96 1030.7
20190222084736 28 248 0.9 7.0 0.00 1.23 0.71 96 1030.3
20190222083126 28 39 1.7 7.0 0.00 1.23 0.71 96 1029.9
20190222081617 29 120 0.9 13.9 0.01 1.23 0.71 96 1029.3
20190222080216 30 218 3.5 13.9 0.01 1.23 0.71 96 1029.2
20190222074636 31 43 2.6 12.2 0.02 1.23 0.71 96 1028.5
20190222073132 32 49 2.6 8.7 0.02 1.23 0.71 97 1028.0
20190222071620 33 271 1.7 4.3 0.02 1.22 0.70 97 1027.4
20190222070121 34 262 0.0 2.6 0.03 1.22 0.70 97 1027.0
20190222064555 34 333 0.0 2.6 0.03 1.21 0.69 97 1026.7
20190222063126 35 340 0.0 1.7 0.04 1.21 0.69 97 1026.4